GS-1

Last updated on Thu Nov 21 2024 00:02:45 GMT+0000 (Coordinated Universal Time)

1 56372U 23060C 24323.95266056 -.00000099 00000+0 00000+0 0 9994 2 56372 1.2366 86.3387 0003314 248.6974 143.6666 1.00238059 1774
UTC large
Height (km)
Speed (km/s)
/
Latitude / Longitude
Inclination (degrees)
Orbital Period (minutes)
Azimuth
Elevation
Range (km)
Doppler Factor

Next 0 passes for location: London (51.5072 / 0.1276)

Sorry there are no passes over London.